This is the latest recevied weather packets stored in our database for station/object KB8SSH. If no packets are shown the sender has not sent any weather packets the latest 10 day(s).
| Time | Temp. | Humidity | Pressure | Rain* | Wind** | Luminosity | Snow |
|---|---|---|---|---|---|---|---|
| 1777660899 | 10.56° C | 78% | 1046.7 hPa | 0 mm | - | 578 W/m² | - |
| 1777660596 | 10.56° C | 81% | 1046.4 hPa | 0 mm | - | 409 W/m² | - |
| 1777660293 | 10.56° C | 80% | 1046.4 hPa | 0 mm | - | 212 W/m² | - |
| 1777659990 | 11.11° C | 77% | 1045.9 hPa | 0 mm | - | 151 W/m² | - |
| 1777659686 | 11.67° C | 75% | 1045.6 hPa | 0 mm | - | 230 W/m² | - |
| 1777659384 | 11.11° C | 78% | 1045.6 hPa | 0 mm | - | 689 W/m² | - |
| 1777659080 | 11.11° C | 79% | 1045.6 hPa | 0 mm | - | 288 W/m² | - |
| 1777658779 | 11.67° C | 79% | 1045.3 hPa | 0 mm | - | 180 W/m² | - |
| 1777658474 | 11.67° C | 79% | 1045.3 hPa | 0 mm | - | 111 W/m² | - |
| 1777658171 | 11.67° C | 80% | 1045.3 hPa | 0 mm | - | 804 W/m² | - |
| 1777657868 | 11.67° C | 83% | 1045.3 hPa | 0 mm | - | 229 W/m² | - |
| 1777657565 | 11.11° C | 84% | 1045.3 hPa | 0 mm | - | 802 W/m² | - |
| 1777657262 | 10.56° C | 86% | 1045.3 hPa | 0 mm | - | 344 W/m² | - |
| 1777656959 | 10° C | 87% | 1045.3 hPa | 0 mm | - | 172 W/m² | - |
| 1777656656 | 9.44° C | 87% | 1045.3 hPa | 0 mm | - | 88 W/m² | - |
| 1777656352 | 9.44° C | 87% | 1045.3 hPa | 0 mm | - | 46 W/m² | - |
| 1777656047 | 9.44° C | 87% | 1045.3 hPa | 0 mm | - | 52 W/m² | - |
| 1777655744 | 9.44° C | 87% | 1045.3 hPa | 0 mm | - | 46 W/m² | - |
| 1777655441 | 10° C | 88% | 1045.3 hPa | 0 mm | - | 60 W/m² | - |
| 1777655137 | 10° C | 87% | 1045.3 hPa | 0 mm | - | 70 W/m² | - |
| 1777654835 | 10° C | 88% | 1045.3 hPa | 0 mm | - | 81 W/m² | - |
| 1777654532 | 10° C | 88% | 1045.3 hPa | 0 mm | - | 238 W/m² | - |
| 1777654230 | 10° C | 87% | 1045.3 hPa | 0 mm | - | 73 W/m² | - |
| 1777653927 | 10.56° C | 87% | 1045.3 hPa | 0 mm | - | 38 W/m² | - |
| 1777653624 | 10.56° C | 89% | 1044.9 hPa | 0 mm | - | 180 W/m² | - |
* Rain latest hour (hover to see other rain measurements)
** Current wind speed in m/s (hover to see current wind gust speed)